NKS829 KFLL-MHLM

Flight info

Callsign NKS829
Flight time 2h 13m
Altitude 34000
Route MAYNR3 FUNDI UM335 ALVEK UZ637 PABEL UL471 DENOM
Aircraft A320/M-SDE3FGHIRWY/LB1

Departure

Time 2026-05-03 22:59
Airport Fort Lauderdale Hollywood International Airport (KFLL)

Arrival

Time 2026-05-04 01:12
Airport Ramón Villeda Morales International Airport (MHLM)
Time Latitude Longitude Altitude Speed Heading
2026-05-03 22:17 26.06880 -80.14385 16 ft 0 kts
2026-05-03 22:28 26.06875 -80.14385 16 ft 3 kts
2026-05-03 22:28 26.06849 -80.14385 16 ft 3 kts
2026-05-03 22:28 26.06828 -80.14384 17 ft 4 kts 328°
2026-05-03 22:29 26.06818 -80.14365 16 ft 3 kts 270°
2026-05-03 22:29 26.06818 -80.14349 16 ft 0 kts 270°
2026-05-03 22:32 26.06818 -80.14352 16 ft 2 kts 270°
2026-05-03 22:32 26.06818 -80.14374 16 ft 6 kts 271°
2026-05-03 22:32 26.06819 -80.14448 16 ft 13 kts 270°
2026-05-03 22:32 26.06811 -80.14549 15 ft 13 kts 249°
2026-05-03 22:33 26.06804 -80.14564 15 ft 0 kts 240°
2026-05-03 22:34 26.06803 -80.14566 15 ft 2 kts 240°
2026-05-03 22:35 26.06779 -80.14591 15 ft 8 kts 220°
2026-05-03 22:35 26.06765 -80.14678 15 ft 15 kts 272°
2026-05-03 22:35 26.06767 -80.14792 15 ft 15 kts 269°
2026-05-03 22:35 26.06767 -80.14907 15 ft 15 kts 270°
2026-05-03 22:36 26.06767 -80.15015 16 ft 7 kts 270°
2026-05-03 22:36 26.06767 -80.15056 16 ft 0 kts 270°
2026-05-03 22:37 26.06767 -80.15057 16 ft 1 kts 270°
2026-05-03 22:37 26.06767 -80.15090 16 ft 8 kts 267°
2026-05-03 22:37 26.06724 -80.15137 19 ft 9 kts 204°
2026-05-03 22:37 26.06693 -80.15181 21 ft 9 kts 262°
2026-05-03 22:38 26.06695 -80.15283 16 ft 18 kts 271°
2026-05-03 22:38 26.06696 -80.15376 16 ft 5 kts 270°
2026-05-03 22:38 26.06696 -80.15415 16 ft 5 kts 271°
2026-05-03 22:38 26.06696 -80.15422 16 ft 0 kts 271°
2026-05-03 22:42 26.06697 -80.15425 16 ft 3 kts 271°
2026-05-03 22:42 26.06697 -80.15466 16 ft 0 kts 270°
2026-05-03 22:43 26.06697 -80.15468 16 ft 2 kts 270°
2026-05-03 22:43 26.06697 -80.15485 16 ft 0 kts 271°
2026-05-03 22:44 26.06697 -80.15492 16 ft 0 kts 271°
2026-05-03 22:44 26.06697 -80.15494 16 ft 0 kts 271°
2026-05-03 22:44 26.06697 -80.15507 16 ft 5 kts 270°
2026-05-03 22:44 26.06697 -80.15557 16 ft 6 kts 270°
2026-05-03 22:45 26.06697 -80.15559 16 ft 0 kts 270°
2026-05-03 22:45 26.06697 -80.15589 16 ft 6 kts 270°
2026-05-03 22:45 26.06697 -80.15616 16 ft 0 kts 270°
2026-05-03 22:50 26.06697 -80.15619 16 ft 1 kts 270°
2026-05-03 22:50 26.06697 -80.15638 16 ft 5 kts 270°
2026-05-03 22:50 26.06698 -80.15668 16 ft 0 kts 270°
2026-05-03 22:51 26.06698 -80.15686 16 ft 4 kts 270°
2026-05-03 22:52 26.06698 -80.15715 16 ft 0 kts 270°
2026-05-03 22:53 26.06698 -80.15725 16 ft 5 kts 270°
2026-05-03 22:53 26.06699 -80.15761 16 ft 0 kts 270°
2026-05-03 22:55 26.06699 -80.15762 16 ft 1 kts 270°
2026-05-03 22:55 26.06699 -80.15783 16 ft 4 kts 270°
2026-05-03 22:55 26.06690 -80.15807 16 ft 3 kts 210°
2026-05-03 22:55 26.06689 -80.15808 16 ft 0 kts 210°
2026-05-03 22:57 26.06676 -80.15815 17 ft 8 kts 210°
2026-05-03 22:57 26.06614 -80.15820 17 ft 9 kts 161°
2026-05-03 22:58 26.06587 -80.15770 19 ft 8 kts 86°
2026-05-03 22:58 26.06588 -80.15689 21 ft 26 kts 90°
2026-05-03 22:58 26.06586 -80.15185 21 ft 100 kts 90°
2026-05-03 22:58 26.06582 -80.14204 62 ft 149 kts 90°
2026-05-03 22:59 26.06578 -80.12973 453 ft 162 kts 89°
2026-05-03 22:59 26.06583 -80.11725 1052 ft 160 kts 86°
2026-05-03 22:59 26.06607 -80.10469 1513 ft 167 kts 85°
2026-05-03 22:59 26.06635 -80.09081 1687 ft 191 kts 87°
2026-05-03 23:00 26.06662 -80.07514 1879 ft 215 kts 86°
2026-05-03 23:00 26.06685 -80.05761 2144 ft 238 kts 88°
2026-05-03 23:00 26.06705 -80.03824 2465 ft 261 kts 88°
2026-05-03 23:00 26.06722 -80.01763 3086 ft 271 kts 89°
2026-05-03 23:01 26.06740 -79.99639 3731 ft 279 kts 89°
2026-05-03 23:01 26.06782 -79.97471 3938 ft 282 kts 88°
2026-05-03 23:01 26.06837 -79.95293 3994 ft 282 kts 88°
2026-05-03 23:01 26.06895 -79.93114 3996 ft 281 kts 88°
2026-05-03 23:02 26.06953 -79.90936 4003 ft 282 kts 88°
2026-05-03 23:02 26.07009 -79.88759 4004 ft 282 kts 88°
2026-05-03 23:02 26.07061 -79.86583 4005 ft 282 kts 88°
2026-05-03 23:02 26.07110 -79.84406 4006 ft 282 kts 89°
2026-05-03 23:03 26.07158 -79.82224 4007 ft 282 kts 88°
2026-05-03 23:03 26.07206 -79.80039 4007 ft 282 kts 89°
2026-05-03 23:03 26.07253 -79.77858 4007 ft 282 kts 89°
2026-05-03 23:03 26.07302 -79.75672 4009 ft 282 kts 88°
2026-05-03 23:04 26.07349 -79.73491 4010 ft 283 kts 89°
2026-05-03 23:04 26.07396 -79.71306 4010 ft 282 kts 88°
2026-05-03 23:04 26.07447 -79.69123 4009 ft 282 kts 88°
2026-05-03 23:04 26.07498 -79.66937 4010 ft 283 kts 88°
2026-05-03 23:05 26.07545 -79.64753 4008 ft 283 kts 89°
2026-05-03 23:05 26.07589 -79.62569 4010 ft 282 kts 89°
2026-05-03 23:05 26.07635 -79.60387 4009 ft 283 kts 89°
2026-05-03 23:05 26.07680 -79.58198 4010 ft 283 kts 89°
2026-05-03 23:06 26.07725 -79.56018 4009 ft 282 kts 89°
2026-05-03 23:06 26.07767 -79.53838 4008 ft 282 kts 89°
2026-05-03 23:06 26.07809 -79.51653 4009 ft 282 kts 89°
2026-05-03 23:06 26.07853 -79.49477 4010 ft 282 kts 89°
2026-05-03 23:07 26.07900 -79.47295 4009 ft 282 kts 89°
2026-05-03 23:07 26.07945 -79.45113 4010 ft 282 kts 89°
2026-05-03 23:07 26.07989 -79.42938 4009 ft 282 kts 89°
2026-05-03 23:07 26.08031 -79.40744 4108 ft 286 kts 90°
2026-05-03 23:08 26.07748 -79.38559 4898 ft 286 kts 111°
2026-05-03 23:08 26.06745 -79.36666 5671 ft 285 kts 136°
2026-05-03 23:08 26.05154 -79.35396 6399 ft 282 kts 161°
2026-05-03 23:08 26.03260 -79.34946 7085 ft 278 kts 185°
2026-05-03 23:09 26.01391 -79.35353 7798 ft 273 kts 207°
2026-05-03 23:09 25.99828 -79.36505 8532 ft 270 kts 228°
2026-05-03 23:09 25.98640 -79.38117 9271 ft 271 kts 234°
2026-05-03 23:09 25.97482 -79.39779 10001 ft 273 kts 234°
2026-05-03 23:10 25.96292 -79.41485 10346 ft 289 kts 234°
2026-05-03 23:10 25.95012 -79.43320 10474 ft 312 kts 233°
2026-05-03 23:10 25.93666 -79.45245 10750 ft 326 kts 233°
2026-05-03 23:10 25.92261 -79.47244 11282 ft 330 kts 233°
2026-05-03 23:11 25.90842 -79.49261 11877 ft 333 kts 233°
2026-05-03 23:11 25.89419 -79.51285 12466 ft 335 kts 233°
2026-05-03 23:11 25.87969 -79.53345 13049 ft 338 kts 233°
2026-05-03 23:11 25.86513 -79.55410 13591 ft 341 kts 233°
2026-05-03 23:12 25.85043 -79.57495 14111 ft 344 kts 233°
2026-05-03 23:12 25.83563 -79.59596 14628 ft 346 kts 233°
2026-05-03 23:12 25.82078 -79.61704 15149 ft 348 kts 233°
2026-05-03 23:12 25.80584 -79.63822 15652 ft 350 kts 233°
2026-05-03 23:13 25.79076 -79.65953 16156 ft 352 kts 233°
2026-05-03 23:13 25.77561 -79.68094 16658 ft 353 kts 233°
2026-05-03 23:13 25.76039 -79.70243 17163 ft 355 kts 233°
2026-05-03 23:13 25.74508 -79.72405 17673 ft 357 kts 233°
2026-05-03 23:14 25.72970 -79.74581 18178 ft 359 kts 233°
2026-05-03 23:14 25.71425 -79.76774 18637 ft 361 kts 233°
2026-05-03 23:14 25.69874 -79.78976 19089 ft 363 kts 233°
2026-05-03 23:14 25.68315 -79.81181 19561 ft 364 kts 233°
2026-05-03 23:15 25.66751 -79.83391 20025 ft 365 kts 233°
2026-05-03 23:15 25.65178 -79.85608 20487 ft 367 kts 233°
2026-05-03 23:15 25.63594 -79.87835 20940 ft 368 kts 233°
2026-05-03 23:15 25.62010 -79.90065 21373 ft 369 kts 234°
2026-05-03 23:16 25.60416 -79.92308 21800 ft 371 kts 234°
2026-05-03 23:16 25.58820 -79.94555 22167 ft 373 kts 234°
2026-05-03 23:16 25.57214 -79.96819 22555 ft 375 kts 234°
2026-05-03 23:16 25.55602 -79.99094 22944 ft 376 kts 234°
2026-05-03 23:17 25.53978 -80.01380 23330 ft 378 kts 234°
2026-05-03 23:17 25.52348 -80.03670 23693 ft 380 kts 234°
2026-05-03 23:17 25.50710 -80.05971 24015 ft 381 kts 234°
2026-05-03 23:17 25.49067 -80.08277 24336 ft 382 kts 234°
2026-05-03 23:18 25.47975 -80.09811 24542 ft 383 kts 234°
2026-05-03 23:18 25.46322 -80.12132 24862 ft 385 kts 234°
2026-05-03 23:18 25.44662 -80.14461 25166 ft 386 kts 234°
2026-05-03 23:18 25.42998 -80.16796 25480 ft 387 kts 234°
2026-05-03 23:19 25.41324 -80.19142 25787 ft 389 kts 234°
2026-05-03 23:19 25.39645 -80.21490 26096 ft 390 kts 234°
2026-05-03 23:19 25.37961 -80.23845 26390 ft 391 kts 234°
2026-05-03 23:19 25.36270 -80.26206 26702 ft 392 kts 234°
2026-05-03 23:20 25.34571 -80.28577 27021 ft 394 kts 234°
2026-05-03 23:20 25.32868 -80.30955 27324 ft 395 kts 234°
2026-05-03 23:20 25.31158 -80.33341 27572 ft 398 kts 234°
2026-05-03 23:20 25.29436 -80.35747 27834 ft 400 kts 235°
2026-05-03 23:21 25.27708 -80.38162 28127 ft 401 kts 235°
2026-05-03 23:21 25.25963 -80.40576 28451 ft 403 kts 232°
2026-05-03 23:21 25.23938 -80.42727 28875 ft 407 kts 222°
2026-05-03 23:21 25.21544 -80.44417 29304 ft 413 kts 212°
2026-05-03 23:22 25.16053 -80.46487 30134 ft 418 kts 203°
2026-05-03 23:22 25.13266 -80.47393 30496 ft 417 kts 203°
2026-05-03 23:22 25.10488 -80.48299 30861 ft 415 kts 203°
2026-05-03 23:23 25.07721 -80.49203 31231 ft 414 kts 203°
2026-05-03 23:23 25.04966 -80.50105 31612 ft 412 kts 203°
2026-05-03 23:23 25.02221 -80.51002 31961 ft 411 kts 202°
2026-05-03 23:23 24.99480 -80.51900 32255 ft 412 kts 202°
2026-05-03 23:24 24.96732 -80.52803 32572 ft 412 kts 202°
2026-05-03 23:24 24.93986 -80.53702 32917 ft 411 kts 202°
2026-05-03 23:24 24.91250 -80.54597 33325 ft 409 kts 202°
2026-05-03 23:24 24.88532 -80.55486 33753 ft 406 kts 204°
2026-05-03 23:25 24.85925 -80.56603 33966 ft 399 kts 211°
2026-05-03 23:25 24.83522 -80.58121 34013 ft 399 kts 218°
2026-05-03 23:25 24.79370 -80.62174 34014 ft 399 kts 235°
2026-05-03 23:26 24.76320 -80.67276 34010 ft 399 kts 239°
2026-05-03 23:26 24.73377 -80.72417 34009 ft 400 kts 239°
2026-05-03 23:27 24.70383 -80.77616 34006 ft 406 kts 239°
2026-05-03 23:27 24.67329 -80.82860 34006 ft 408 kts 239°
2026-05-03 23:28 24.64265 -80.88111 34000 ft 408 kts 239°
2026-05-03 23:28 24.61202 -80.93360 34013 ft 408 kts 239°
2026-05-03 23:29 24.57743 -80.98275 34026 ft 411 kts 223°
2026-05-03 23:29 24.55370 -81.00067 34028 ft 417 kts 211°
2026-05-03 23:29 24.52653 -81.01211 34023 ft 425 kts 199°
2026-05-03 23:30 24.49692 -81.01629 34022 ft 435 kts 186°
2026-05-03 23:30 24.46657 -81.01600 34018 ft 436 kts 186°
2026-05-03 23:30 24.40580 -81.01529 34014 ft 437 kts 186°
2026-05-03 23:31 24.34497 -81.01478 34019 ft 437 kts 186°
2026-05-03 23:31 24.28408 -81.01435 34024 ft 438 kts 186°
2026-05-03 23:32 24.22312 -81.01392 34030 ft 438 kts 186°
2026-05-03 23:32 24.16215 -81.01340 34030 ft 438 kts 186°
2026-05-03 23:33 24.10116 -81.01284 34002 ft 438 kts 185°
2026-05-03 23:33 24.04001 -81.01235 33999 ft 440 kts 185°
2026-05-03 23:34 23.97857 -81.01165 34000 ft 443 kts 185°
2026-05-03 23:34 23.91683 -81.00922 34009 ft 445 kts 183°
2026-05-03 23:35 23.85537 -81.00598 34015 ft 445 kts 183°
2026-05-03 23:35 23.79352 -81.00303 33997 ft 445 kts 184°
2026-05-03 23:36 23.73154 -81.00048 33992 ft 446 kts 184°
2026-05-03 23:36 23.66937 -80.99798 33994 ft 448 kts 184°
2026-05-03 23:37 23.60707 -80.99539 33998 ft 448 kts 184°
2026-05-03 23:37 23.54472 -80.99280 34002 ft 448 kts 184°
2026-05-03 23:38 23.48232 -80.99018 33985 ft 449 kts 184°
2026-05-03 23:38 23.41983 -80.98749 33985 ft 450 kts 184°
2026-05-03 23:39 23.35710 -80.98483 33989 ft 452 kts 184°
2026-05-03 23:39 23.29425 -80.98219 33994 ft 452 kts 184°
2026-05-03 23:40 23.23129 -80.97956 33996 ft 453 kts 184°
2026-05-03 23:40 23.16826 -80.97698 33988 ft 453 kts 184°
2026-05-03 23:41 23.10508 -80.97437 33986 ft 454 kts 185°
2026-05-03 23:41 23.04358 -80.98316 33989 ft 441 kts 203°
2026-05-03 23:42 22.98973 -81.01221 33993 ft 428 kts 221°
2026-05-03 23:42 22.94703 -81.05613 33996 ft 422 kts 231°
2026-05-03 23:43 22.90687 -81.10276 33997 ft 423 kts 231°
2026-05-03 23:43 22.86659 -81.14935 34004 ft 424 kts 231°
2026-05-03 23:44 22.82628 -81.19600 34008 ft 424 kts 231°
2026-05-03 23:44 22.78607 -81.24268 34019 ft 423 kts 231°
2026-05-03 23:45 22.74591 -81.28930 34025 ft 423 kts 231°
2026-05-03 23:45 22.70573 -81.33590 34020 ft 423 kts 231°
2026-05-03 23:46 22.66550 -81.38253 34014 ft 424 kts 231°
2026-05-03 23:46 22.62545 -81.42889 34014 ft 424 kts 231°
2026-05-03 23:47 22.58517 -81.47559 34019 ft 425 kts 231°
2026-05-03 23:47 22.54489 -81.52232 34007 ft 424 kts 231°
2026-05-03 23:48 22.50476 -81.56898 34029 ft 423 kts 231°
2026-05-03 23:48 22.46474 -81.61548 34033 ft 422 kts 231°
2026-05-03 23:49 22.42479 -81.66181 34041 ft 421 kts 231°
2026-05-03 23:49 22.38482 -81.70798 34030 ft 420 kts 231°
2026-05-03 23:50 22.35168 -81.74625 34026 ft 419 kts 231°
2026-05-03 23:50 22.30520 -81.80015 34027 ft 419 kts 231°
2026-05-03 23:51 22.26552 -81.84624 34030 ft 419 kts 231°
2026-05-03 23:51 22.22576 -81.89228 34004 ft 420 kts 231°
2026-05-03 23:52 22.18586 -81.93852 34002 ft 422 kts 231°
2026-05-03 23:52 22.14587 -81.98493 34007 ft 423 kts 231°
2026-05-03 23:53 22.10570 -82.03128 34011 ft 423 kts 231°
2026-05-03 23:53 22.06548 -82.07765 34014 ft 423 kts 231°
2026-05-03 23:54 22.02550 -82.12371 34025 ft 424 kts 231°
2026-05-03 23:54 21.98500 -82.17048 34025 ft 424 kts 231°
2026-05-03 23:55 21.94493 -82.21658 34011 ft 424 kts 231°
2026-05-03 23:55 21.90453 -82.26303 34015 ft 426 kts 231°
2026-05-03 23:56 21.86405 -82.30965 34019 ft 427 kts 231°
2026-05-03 23:56 21.82344 -82.35626 34009 ft 427 kts 231°
2026-05-03 23:57 21.78278 -82.40285 34032 ft 427 kts 231°
2026-05-03 23:57 21.74209 -82.44943 34025 ft 427 kts 231°
2026-05-03 23:58 21.70139 -82.49605 34029 ft 427 kts 231°
2026-05-03 23:58 21.66083 -82.54273 34034 ft 427 kts 231°
2026-05-03 23:59 21.62083 -82.58986 34016 ft 427 kts 232°
2026-05-03 23:59 21.58087 -82.63717 34007 ft 428 kts 232°
2026-05-04 00:00 21.54067 -82.68451 34012 ft 429 kts 232°
2026-05-04 00:00 21.50054 -82.73149 34015 ft 430 kts 231°
2026-05-04 00:01 21.45973 -82.77912 34019 ft 431 kts 231°
2026-05-04 00:01 21.41956 -82.82617 34035 ft 430 kts 231°
2026-05-04 00:02 21.37912 -82.87346 34038 ft 430 kts 231°
2026-05-04 00:02 21.33866 -82.92065 34040 ft 429 kts 231°
2026-05-04 00:03 21.29829 -82.96780 34040 ft 429 kts 231°
2026-05-04 00:03 21.25792 -83.01489 34037 ft 429 kts 231°
2026-05-04 00:04 21.21751 -83.06191 34036 ft 429 kts 231°
2026-05-04 00:04 21.17714 -83.10892 34035 ft 429 kts 231°
2026-05-04 00:05 21.13675 -83.15593 34032 ft 429 kts 231°
2026-05-04 00:05 21.09632 -83.20293 34029 ft 429 kts 231°
2026-05-04 00:06 21.05614 -83.24962 34035 ft 429 kts 231°
2026-05-04 00:06 21.01538 -83.29688 34034 ft 429 kts 231°
2026-05-04 00:07 20.97526 -83.34363 34009 ft 430 kts 232°
2026-05-04 00:07 20.93493 -83.39099 34010 ft 431 kts 232°
2026-05-04 00:08 20.90108 -83.43071 34009 ft 431 kts 232°
2026-05-04 00:08 20.86080 -83.47775 34010 ft 432 kts 232°
2026-05-04 00:09 20.82020 -83.52512 34016 ft 432 kts 232°
2026-05-04 00:09 20.77959 -83.57253 34018 ft 432 kts 231°
2026-05-04 00:10 20.73889 -83.61989 34020 ft 433 kts 231°
2026-05-04 00:10 20.69819 -83.66723 34022 ft 433 kts 231°
2026-05-04 00:11 20.65741 -83.71450 34004 ft 433 kts 231°
2026-05-04 00:11 20.61669 -83.76194 34003 ft 433 kts 231°
2026-05-04 00:12 20.57588 -83.80931 34010 ft 434 kts 231°
2026-05-04 00:12 20.53509 -83.85670 34011 ft 434 kts 231°
2026-05-04 00:13 20.49428 -83.90410 34014 ft 434 kts 231°
2026-05-04 00:13 20.45290 -83.95091 34020 ft 436 kts 226°
2026-05-04 00:14 20.40429 -83.99020 34015 ft 439 kts 220°
2026-05-04 00:14 20.35487 -84.02849 33999 ft 439 kts 220°
2026-05-04 00:15 20.30557 -84.06710 33993 ft 440 kts 221°
2026-05-04 00:15 20.25615 -84.10587 33996 ft 442 kts 220°
2026-05-04 00:16 20.20656 -84.14454 34002 ft 442 kts 220°
2026-05-04 00:16 20.15726 -84.18303 34006 ft 442 kts 220°
2026-05-04 00:17 20.10761 -84.22182 34008 ft 443 kts 220°
2026-05-04 00:17 20.05790 -84.26054 34013 ft 443 kts 220°
2026-05-04 00:18 20.00817 -84.29921 34001 ft 443 kts 220°
2026-05-04 00:18 19.95841 -84.33804 34008 ft 444 kts 220°
2026-05-04 00:19 19.90857 -84.37681 34013 ft 444 kts 220°
2026-05-04 00:19 19.85857 -84.41547 34019 ft 444 kts 220°
2026-05-04 00:20 19.80864 -84.45421 34023 ft 444 kts 220°
2026-05-04 00:20 19.75871 -84.49296 34029 ft 445 kts 220°
2026-05-04 00:21 19.70878 -84.53171 34020 ft 445 kts 220°
2026-05-04 00:21 19.65886 -84.57022 34034 ft 443 kts 220°
2026-05-04 00:22 19.60917 -84.60862 34034 ft 441 kts 220°
2026-05-04 00:22 19.55969 -84.64688 34033 ft 440 kts 220°
2026-05-04 00:23 19.51020 -84.68497 34027 ft 439 kts 220°
2026-05-04 00:23 19.46073 -84.72311 34027 ft 440 kts 220°
2026-05-04 00:24 19.41165 -84.76109 34026 ft 440 kts 220°
2026-05-04 00:24 19.36215 -84.79919 34010 ft 440 kts 220°
2026-05-04 00:25 19.31263 -84.83726 34011 ft 440 kts 220°
2026-05-04 00:25 19.26320 -84.87547 34017 ft 440 kts 220°
2026-05-04 00:26 19.21368 -84.91356 34016 ft 440 kts 220°
2026-05-04 00:26 19.16405 -84.95150 34018 ft 440 kts 220°
2026-05-04 00:27 19.11441 -84.98951 34017 ft 440 kts 220°
2026-05-04 00:27 19.06486 -85.02751 34017 ft 440 kts 220°
2026-05-04 00:28 19.01535 -85.06552 34001 ft 440 kts 220°
2026-05-04 00:28 18.96582 -85.10363 34001 ft 441 kts 219°
2026-05-04 00:29 18.91615 -85.14170 33994 ft 441 kts 219°
2026-05-04 00:29 18.86636 -85.17961 33995 ft 441 kts 219°
2026-05-04 00:30 18.81659 -85.21759 33997 ft 441 kts 219°
2026-05-04 00:30 18.76684 -85.25557 33999 ft 442 kts 219°
2026-05-04 00:31 18.71702 -85.29355 33990 ft 442 kts 219°
2026-05-04 00:31 18.66720 -85.33163 33985 ft 443 kts 219°
2026-05-04 00:32 18.61722 -85.36968 33983 ft 444 kts 219°
2026-05-04 00:32 18.56713 -85.40776 33987 ft 444 kts 219°
2026-05-04 00:33 18.49231 -85.46472 34002 ft 444 kts 219°
2026-05-04 00:34 18.44217 -85.50278 34005 ft 444 kts 219°
2026-05-04 00:34 18.39205 -85.54078 34005 ft 444 kts 219°
2026-05-04 00:35 18.34196 -85.57883 33982 ft 444 kts 219°
2026-05-04 00:35 18.29183 -85.61691 33980 ft 445 kts 219°
2026-05-04 00:36 18.24155 -85.65490 33981 ft 445 kts 219°
2026-05-04 00:36 18.19127 -85.69296 33982 ft 445 kts 219°
2026-05-04 00:37 18.14096 -85.73103 33985 ft 446 kts 219°
2026-05-04 00:37 18.09065 -85.76915 33986 ft 446 kts 219°
2026-05-04 00:38 18.04024 -85.80724 33990 ft 446 kts 219°
2026-05-04 00:38 17.98979 -85.84521 33994 ft 446 kts 219°
2026-05-04 00:39 17.93972 -85.88302 33995 ft 446 kts 219°
2026-05-04 00:39 17.88933 -85.92108 33994 ft 446 kts 219°
2026-05-04 00:40 17.83890 -85.95901 33994 ft 446 kts 219°
2026-05-04 00:40 17.78849 -85.99700 33995 ft 446 kts 219°
2026-05-04 00:41 17.73799 -86.03491 33994 ft 446 kts 219°
2026-05-04 00:41 17.68749 -86.07285 33981 ft 447 kts 218°
2026-05-04 00:42 17.63697 -86.11084 33978 ft 448 kts 218°
2026-05-04 00:42 17.58629 -86.14889 33980 ft 448 kts 218°
2026-05-04 00:43 17.53556 -86.18694 33985 ft 449 kts 218°
2026-05-04 00:43 17.48474 -86.22494 33991 ft 449 kts 218°
2026-05-04 00:44 17.43399 -86.26292 33996 ft 449 kts 218°
2026-05-04 00:44 17.38323 -86.30089 33996 ft 448 kts 218°
2026-05-04 00:45 17.33249 -86.33892 33971 ft 449 kts 218°
2026-05-04 00:45 17.28163 -86.37694 33968 ft 450 kts 218°
2026-05-04 00:46 17.23066 -86.41496 33973 ft 450 kts 218°
2026-05-04 00:46 17.17966 -86.45303 33976 ft 450 kts 218°
2026-05-04 00:47 17.12864 -86.49111 33969 ft 451 kts 218°
2026-05-04 00:47 17.07761 -86.52918 33972 ft 451 kts 218°
2026-05-04 00:48 17.02657 -86.56722 33984 ft 451 kts 218°
2026-05-04 00:48 16.97578 -86.60493 33969 ft 451 kts 217°
2026-05-04 00:49 16.92465 -86.64288 33970 ft 451 kts 217°
2026-05-04 00:49 16.87356 -86.68087 33960 ft 451 kts 217°
2026-05-04 00:50 16.82246 -86.71887 33958 ft 451 kts 217°
2026-05-04 00:50 16.77130 -86.75679 33958 ft 451 kts 217°
2026-05-04 00:51 16.72022 -86.79464 33975 ft 449 kts 217°
2026-05-04 00:51 16.66936 -86.83233 33973 ft 447 kts 217°
2026-05-04 00:52 16.61871 -86.86990 33973 ft 446 kts 217°
2026-05-04 00:52 16.56814 -86.90737 33968 ft 446 kts 217°
2026-05-04 00:53 16.51755 -86.94478 33964 ft 446 kts 216°
2026-05-04 00:53 16.46700 -86.98211 33981 ft 445 kts 217°
2026-05-04 00:54 16.41649 -87.01941 33979 ft 445 kts 217°
2026-05-04 00:54 16.36602 -87.05668 33978 ft 445 kts 217°
2026-05-04 00:54 16.34082 -87.07532 33780 ft 444 kts 217°
2026-05-04 00:55 16.31530 -87.09420 32533 ft 458 kts 216°
2026-05-04 00:55 16.28905 -87.11358 31511 ft 467 kts 216°
2026-05-04 00:55 16.26246 -87.13318 30752 ft 469 kts 216°
2026-05-04 00:55 16.23585 -87.15277 30129 ft 468 kts 216°
2026-05-04 00:56 16.20946 -87.17216 29174 ft 461 kts 216°
2026-05-04 00:56 16.18343 -87.19127 28127 ft 455 kts 216°
2026-05-04 00:56 16.15776 -87.21013 27132 ft 448 kts 216°
2026-05-04 00:56 16.13248 -87.22872 26171 ft 442 kts 216°
2026-05-04 00:57 16.10754 -87.24706 25238 ft 436 kts 216°
2026-05-04 00:57 16.09119 -87.25908 24634 ft 433 kts 215°
2026-05-04 00:57 16.06680 -87.27702 23764 ft 427 kts 215°
2026-05-04 00:57 16.04266 -87.29474 22769 ft 422 kts 214°
2026-05-04 00:58 16.01882 -87.31225 21809 ft 417 kts 215°
2026-05-04 00:58 15.99526 -87.32957 20898 ft 413 kts 215°
2026-05-04 00:58 15.97191 -87.34672 20004 ft 408 kts 215°
2026-05-04 00:58 15.94884 -87.36367 19108 ft 405 kts 214°
2026-05-04 00:59 15.92597 -87.38046 18245 ft 401 kts 214°
2026-05-04 00:59 15.90381 -87.39776 17255 ft 396 kts 222°
2026-05-04 00:59 15.88483 -87.41824 16359 ft 391 kts 227°
2026-05-04 00:59 15.86662 -87.43893 15476 ft 385 kts 227°
2026-05-04 01:00 15.84862 -87.45930 14644 ft 380 kts 227°
2026-05-04 01:00 15.83085 -87.47935 13824 ft 375 kts 227°
2026-05-04 01:00 15.81346 -87.49898 13228 ft 362 kts 227°
2026-05-04 01:00 15.79679 -87.51777 12784 ft 347 kts 227°
2026-05-04 01:01 15.78061 -87.53600 12357 ft 342 kts 227°
2026-05-04 01:01 15.76449 -87.55420 11920 ft 342 kts 227°
2026-05-04 01:01 15.74838 -87.57239 11509 ft 342 kts 227°
2026-05-04 01:01 15.73228 -87.59056 11070 ft 342 kts 227°
2026-05-04 01:02 15.71618 -87.60874 10631 ft 342 kts 227°
2026-05-04 01:02 15.70011 -87.62685 10314 ft 336 kts 227°
2026-05-04 01:02 15.68474 -87.64412 10103 ft 318 kts 227°
2026-05-04 01:02 15.66988 -87.66082 9741 ft 313 kts 227°
2026-05-04 01:03 15.65526 -87.67729 9604 ft 309 kts 227°
2026-05-04 01:03 15.64076 -87.69364 9242 ft 306 kts 227°
2026-05-04 01:03 15.62642 -87.70985 8839 ft 303 kts 227°
2026-05-04 01:03 15.61221 -87.72588 8431 ft 301 kts 227°
2026-05-04 01:04 15.59804 -87.74181 8035 ft 299 kts 227°
2026-05-04 01:04 15.58410 -87.75753 7642 ft 301 kts 228°
2026-05-04 01:04 15.56991 -87.77353 7321 ft 300 kts 228°
2026-05-04 01:04 15.55573 -87.78948 6866 ft 304 kts 228°
2026-05-04 01:05 15.54133 -87.80567 6425 ft 307 kts 228°
2026-05-04 01:05 15.52704 -87.82174 5996 ft 299 kts 228°
2026-05-04 01:05 15.51318 -87.83731 5601 ft 289 kts 229°
2026-05-04 01:05 15.50004 -87.85207 5226 ft 268 kts 229°
2026-05-04 01:06 15.48790 -87.86571 4882 ft 248 kts 229°
2026-05-04 01:06 15.47663 -87.87837 4560 ft 230 kts 230°
2026-05-04 01:06 15.46602 -87.89029 4217 ft 222 kts 230°
2026-05-04 01:06 15.45592 -87.90162 3947 ft 204 kts 229°
2026-05-04 01:07 15.44645 -87.91224 3676 ft 201 kts 230°
2026-05-04 01:07 15.43694 -87.92295 3394 ft 202 kts 229°
2026-05-04 01:07 15.42746 -87.93362 3125 ft 201 kts 229°
2026-05-04 01:07 15.41801 -87.94425 2854 ft 199 kts 228°
2026-05-04 01:08 15.40855 -87.95488 2582 ft 200 kts 229°
2026-05-04 01:08 15.39908 -87.96551 2313 ft 200 kts 228°
2026-05-04 01:08 15.38994 -87.97578 2081 ft 184 kts 228°
2026-05-04 01:08 15.38174 -87.98496 2006 ft 166 kts 229°
2026-05-04 01:09 15.37481 -87.99415 1982 ft 159 kts 253°
2026-05-04 01:09 15.37637 -88.00429 2032 ft 141 kts 319°
2026-05-04 01:09 15.38529 -88.00626 1998 ft 141 kts 25°
2026-05-04 01:09 15.39069 -87.99829 1779 ft 143 kts 82°
2026-05-04 01:10 15.38991 -87.98780 1563 ft 147 kts 93°
2026-05-04 01:10 15.39128 -87.97775 1423 ft 141 kts 56°
2026-05-04 01:10 15.39813 -87.97072 1153 ft 139 kts 40°
2026-05-04 01:10 15.40548 -87.96428 989 ft 139 kts 41°
2026-05-04 01:11 15.41289 -87.95792 855 ft 137 kts 40°
2026-05-04 01:11 15.42042 -87.95159 670 ft 141 kts 42°
2026-05-04 01:11 15.42760 -87.94518 532 ft 138 kts 42°
2026-05-04 01:11 15.43531 -87.93883 368 ft 138 kts 43°
2026-05-04 01:12 15.44260 -87.93235 197 ft 139 kts 42°
2026-05-04 01:12 15.44950 -87.92627 108 ft 114 kts 39°
2026-05-04 01:12 15.45325 -87.92302 111 ft 27 kts 39°
2026-05-04 01:12 15.45401 -87.92271 112 ft 11 kts 337°
2026-05-04 01:13 15.45463 -87.92339 107 ft 16 kts 310°
2026-05-04 01:13 15.45531 -87.92422 107 ft 11 kts 309°
2026-05-04 01:13 15.45540 -87.92434 106 ft 2 kts 308°
2026-05-04 01:13 15.45555 -87.92453 106 ft 5 kts 308°
2026-05-04 01:14 15.45574 -87.92488 106 ft 6 kts 279°
2026-05-04 01:14 15.45539 -87.92538 106 ft 11 kts 220°
2026-05-04 01:14 15.45489 -87.92589 106 ft 7 kts 255°
2026-05-04 01:14 15.45521 -87.92630 106 ft 8 kts 313°
2026-05-04 01:15 15.45541 -87.92657 106 ft 2 kts 309°
2026-05-04 01:15 15.45545 -87.92662 106 ft 0 kts 309°
2026-05-04 01:15 15.45545 -87.92663 106 ft 0 kts 309°